�N����,����,�~����,�C��,���x,�C��,����,���ϕ���,�ő�u�ԕ���,�ő厞����,���˗�,�I�_���x,�n�����x,�ő啗���N��,DTYPE
"21/09/22","00:10",0.0,23.1,84.6,1006.4,57.6,0.7,2.1,341.6,0.00,20.4,24.4,"00:03:12",1
"21/09/22","00:20",0.0,23.2,84.2,1006.7,67.3,0.7,2.0,105.6,0.00,20.4,24.5,"00:18:00",1
"21/09/22","00:30",0.0,23.3,84.0,1006.7,65.0,0.6,1.9,61.4,0.00,20.5,24.6,"00:26:40",1
"21/09/22","00:40",0.0,23.3,83.8,1006.9,125.4,0.6,1.9,60.1,0.00,20.4,24.4,"00:30:56",1
"21/09/22","00:50",0.0,23.4,83.6,1006.7,90.0,0.8,2.0,57.3,0.00,20.5,24.3,"00:42:40",1
"21/09/22","01:00",0.0,23.4,83.2,1006.2,139.0,0.7,1.7,150.8,0.00,20.4,24.3,"00:53:44",1
"21/09/22","01:10",0.0,23.4,83.2,1006.7,104.3,0.6,2.9,115.1,0.00,20.4,24.4,"01:00:02",1
"21/09/22","01:20",0.0,23.5,83.0,1006.4,66.9,0.8,2.2,46.8,0.00,20.5,24.1,"01:17:04",1
"21/09/22","01:30",0.0,23.5,82.8,1006.4,100.3,0.7,1.6,105.6,0.00,20.4,24.2,"01:21:04",1
"21/09/22","01:40",0.0,23.5,82.8,1006.0,129.2,0.6,1.6,94.7,0.00,20.4,24.3,"01:30:48",1
"21/09/22","01:50",0.0,23.5,82.8,1005.7,70.1,0.5,1.6,133.8,0.00,20.4,24.4,"01:42:48",1
"21/09/22","02:00",0.0,23.4,82.8,1005.2,345.1,0.5,1.3,341.6,0.00,20.3,24.4,"01:52:40",1
"21/09/22","02:10",0.0,23.2,83.0,1005.7,276.7,0.5,0.9,282.2,0.00,20.2,24.4,"02:04:16",1
"21/09/22","02:20",0.0,23.1,83.5,1005.7,340.0,0.6,1.1,339.3,0.00,20.2,24.3,"02:10:48",1
"21/09/22","02:30",0.0,23.0,84.1,1006.0,316.7,0.8,1.3,322.2,0.00,20.2,24.3,"02:25:20",1
"21/09/22","02:40",0.0,22.8,84.8,1005.7,310.3,0.6,1.2,326.5,0.00,20.1,24.3,"02:32:16",1
"21/09/22","02:50",0.0,22.9,85.4,1005.7,337.2,0.7,1.4,309.2,0.00,20.4,24.2,"02:45:28",1
"21/09/22","03:00",0.0,22.9,85.7,1005.7,314.4,0.6,1.1,316.7,0.00,20.4,24.4,"02:51:28",1
"21/09/22","03:10",0.0,23.0,86.0,1005.7,321.8,0.6,1.3,124.1,0.00,20.6,23.9,"03:05:04",1
"21/09/22","03:20",0.0,23.1,85.9,1005.2,8.1,0.8,2.2,345.9,0.00,20.7,24.2,"03:16:40",1
"21/09/22","03:30",0.0,23.2,85.8,1005.2,37.4,0.5,1.6,116.0,0.00,20.7,24.2,"03:21:28",1
"21/09/22","03:40",0.0,23.2,85.7,1004.8,54.2,0.5,1.3,110.2,0.00,20.7,24.3,"03:33:12",1
"21/09/22","03:50",0.0,23.2,85.7,1005.2,329.5,1.1,1.9,340.2,0.00,20.7,24.3,"03:43:20",1
"21/09/22","04:00",0.0,23.0,85.9,1005.0,318.9,0.7,1.3,332.8,0.00,20.6,24.3,"03:56:00",1
"21/09/22","04:10",0.0,23.0,86.1,1005.0,297.9,0.8,1.4,320.9,0.00,20.6,24.3,"04:03:12",1
"21/09/22","04:20",0.0,23.0,86.3,1005.0,307.8,0.8,1.2,309.1,0.00,20.6,24.2,"04:17:36",1
"21/09/22","04:30",0.0,22.9,86.6,1005.0,308.5,0.8,1.2,321.4,0.00,20.6,24.2,"04:22:16",1
"21/09/22","04:40",0.0,22.9,86.8,1005.2,288.2,0.7,1.4,316.9,0.00,20.6,24.2,"04:36:00",1
"21/09/22","04:50",0.0,22.8,87.1,1005.2,309.3,0.8,1.2,324.0,0.00,20.6,24.3,"04:40:56",1
"21/09/22","05:00",0.0,22.9,87.3,1005.0,324.4,1.0,1.8,336.3,0.00,20.7,24.2,"04:53:20",1
"21/09/22","05:10",0.0,22.8,87.6,1005.2,288.6,0.8,1.0,315.3,0.00,20.7,24.2,"05:07:12",1
"21/09/22","05:20",0.0,22.7,87.9,1005.0,274.2,0.5,1.1,264.9,0.00,20.6,24.2,"05:13:44",1
"21/09/22","05:30",0.0,22.7,88.2,1005.2,293.7,0.5,1.3,322.0,0.00,20.7,24.0,"05:24:40",1
"21/09/22","05:40",0.0,22.7,88.4,1005.7,322.2,0.6,1.0,324.7,0.00,20.7,23.8,"05:34:24",1
"21/09/22","05:50",0.0,22.8,88.7,1005.5,311.8,1.0,1.6,330.1,0.00,20.9,24.1,"05:46:48",1
"21/09/22","06:00",0.0,22.7,89.0,1005.2,329.0,1.0,1.6,324.4,0.00,20.8,23.9,"05:51:04",1
"21/09/22","06:10",0.0,22.6,89.2,1005.2,303.9,0.7,1.3,311.4,0.00,20.8,24.2,"06:08:00",1
"21/09/22","06:20",0.0,22.5,89.5,1005.7,324.8,1.1,1.6,340.4,0.00,20.7,24.1,"06:15:52",1
"21/09/22","06:30",0.0,22.6,89.8,1005.2,321.8,1.1,1.7,325.7,0.00,20.9,24.0,"06:28:16",1
"21/09/22","06:40",0.0,22.6,90.1,1005.2,318.6,0.7,1.6,337.3,0.00,20.9,23.9,"06:30:24",1
"21/09/22","06:50",0.0,23.1,90.3,1005.2,309.8,0.3,0.9,339.1,0.01,21.5,24.0,"06:41:20",1
"21/09/22","07:00",0.0,23.7,90.2,1005.5,328.9,0.7,1.8,340.8,0.02,22.0,24.1,"06:56:40",1
"21/09/22","07:10",0.0,24.5,90.0,1005.5,304.4,0.2,1.0,322.0,0.03,22.8,24.2,"07:01:04",1
"21/09/22","07:20",0.0,24.3,89.2,1005.5,333.3,0.6,1.2,330.3,0.01,22.4,23.9,"07:15:36",1
"21/09/22","07:30",0.0,24.7,89.2,1006.2,355.2,0.5,1.1,355.3,0.07,22.8,24.1,"07:20:16",1
"21/09/22","07:40",0.0,25.5,88.0,1005.7,10.3,0.2,0.8,4.2,0.12,23.4,24.2,"07:31:04",1
"21/09/22","07:50",0.0,25.9,85.6,1005.5,21.0,0.3,0.9,344.7,0.11,23.3,24.1,"07:48:56",1
"21/09/22","08:00",0.0,26.1,83.8,1005.2,190.5,0.3,0.6,193.2,0.11,23.2,24.0,"07:53:28",1
"21/09/22","08:10",0.0,26.9,80.1,1005.0,164.3,0.6,1.6,125.1,0.22,23.2,23.9,"08:03:12",1
"21/09/22","08:20",0.0,27.3,76.5,1004.5,178.7,0.7,1.8,211.1,0.19,22.8,24.2,"08:13:20",1
"21/09/22","08:30",0.0,27.2,75.7,1005.0,141.7,0.6,1.9,139.7,0.13,22.6,24.1,"08:24:24",1
"21/09/22","08:40",0.0,27.0,75.4,1004.8,117.7,0.7,1.7,101.5,0.15,22.3,24.2,"08:38:40",1
"21/09/22","08:50",0.0,26.7,75.5,1004.5,171.3,0.8,1.9,196.4,0.12,22.0,24.1,"08:46:56",1
"21/09/22","09:00",0.0,27.3,75.4,1004.8,64.0,0.5,1.7,132.4,0.19,22.6,24.1,"08:52:08",1
"21/09/22","09:10",0.0,27.8,74.0,1005.0,144.9,0.3,0.9,46.7,0.18,22.8,24.3,"09:09:36",1
"21/09/22","09:20",0.0,28.0,72.7,1005.2,23.7,0.6,1.3,4.8,0.19,22.7,24.1,"09:16:48",1
"21/09/22","09:30",0.0,28.1,72.3,1005.2,196.7,0.7,1.6,35.5,0.17,22.7,24.2,"09:21:20",1
"21/09/22","09:40",0.0,28.2,72.7,1005.2,165.7,0.5,1.3,67.6,0.21,22.9,24.0,"09:38:48",1
"21/09/22","09:50",0.0,28.3,72.0,1005.0,182.8,1.0,2.4,219.9,0.22,22.8,24.4,"09:49:12",1
"21/09/22","10:00",0.0,28.1,71.3,1005.2,224.5,1.1,2.4,236.0,0.22,22.5,24.3,"09:53:20",1
"21/09/22","10:10",0.0,27.9,71.5,1005.0,232.2,1.0,2.4,233.9,0.18,22.3,24.3,"10:02:48",1
"21/09/22","10:20",0.0,28.5,72.1,1005.2,225.7,0.5,1.2,232.9,0.25,23.0,24.4,"10:15:04",1
"21/09/22","10:30",0.0,29.2,69.1,1005.5,112.4,1.0,2.1,33.2,0.42,23.0,24.3,"10:26:56",1
"21/09/22","10:40",0.0,29.8,66.4,1005.7,60.6,0.8,2.6,82.4,0.42,22.9,24.6,"10:37:44",1
"21/09/22","10:50",0.0,30.0,66.5,1006.0,115.6,0.8,1.9,115.8,0.30,23.1,24.5,"10:46:32",1
"21/09/22","11:00",0.0,29.4,66.8,1005.5,330.2,0.7,2.2,3.6,0.19,22.6,24.5,"10:50:32",1
"21/09/22","11:10",0.0,29.2,67.4,1005.2,7.9,0.6,2.0,36.5,0.14,22.6,24.7,"11:04:32",1
"21/09/22","11:20",0.0,29.3,67.3,1005.2,7.9,0.8,1.9,354.2,0.18,22.7,24.7,"11:11:52",1
"21/09/22","11:30",0.0,29.3,67.7,1004.8,231.4,0.8,1.4,139.0,0.20,22.7,24.5,"11:29:36",1
"21/09/22","11:40",0.0,29.4,67.8,1004.8,211.6,0.7,1.8,221.7,0.22,22.9,24.6,"11:35:36",1
"21/09/22","11:50",0.0,29.2,67.1,1004.5,215.3,1.2,2.4,218.3,0.19,22.5,24.7,"11:46:56",1
"21/09/22","12:00",0.0,29.5,66.6,1004.8,252.7,0.5,1.2,232.6,0.20,22.7,24.6,"11:53:52",1
"21/09/22","12:10",0.0,30.1,65.8,1004.8,269.4,0.6,1.9,231.5,0.24,23.0,24.7,"12:06:00",1
"21/09/22","12:20",0.0,30.3,65.1,1004.8,129.2,0.6,1.8,181.6,0.24,23.1,24.7,"12:11:12",1
"21/09/22","12:30",0.0,31.5,62.9,1004.8,184.7,0.8,1.9,204.2,0.59,23.6,24.7,"12:22:24",1
"21/09/22","12:40",0.0,31.4,61.0,1005.2,135.4,0.8,2.4,182.0,0.25,23.0,25.0,"12:39:20",1
"21/09/22","12:50",0.0,31.3,61.6,1005.0,136.7,0.3,1.8,128.0,0.27,23.1,24.9,"12:40:40",1
"21/09/22","13:00",0.0,31.2,62.3,1004.8,198.4,0.7,2.0,224.1,0.22,23.2,25.0,"12:53:28",1
"21/09/22","13:10",0.0,31.2,62.8,1004.8,189.7,0.6,2.2,241.2,0.29,23.3,25.1,"13:04:40",1
"21/09/22","13:20",0.0,31.6,61.6,1004.8,57.5,0.6,1.4,116.6,0.25,23.4,25.2,"13:13:44",1
"21/09/22","13:30",0.0,31.3,62.9,1004.8,143.8,0.5,1.2,125.6,0.16,23.4,25.2,"13:22:24",1
"21/09/22","13:40",0.0,31.1,63.0,1004.3,223.5,0.6,2.5,221.0,0.14,23.3,25.2,"13:39:44",1
"21/09/22","13:50",0.0,30.8,64.2,1004.1,211.7,1.2,3.1,221.6,0.19,23.3,25.3,"13:47:20",1
"21/09/22","14:00",0.0,31.5,62.8,1003.6,199.0,1.8,4.1,201.6,0.44,23.6,25.3,"13:58:08",1
"21/09/22","14:10",0.0,31.7,61.2,1003.8,221.4,2.0,5.4,240.1,0.40,23.3,25.4,"14:04:48",1
"21/09/22","14:20",0.0,31.4,62.4,1003.8,216.3,2.5,4.7,226.8,0.33,23.4,25.3,"14:15:20",1
"21/09/22","14:30",0.0,31.7,61.6,1003.6,211.1,2.3,4.1,222.7,0.33,23.5,25.3,"14:21:28",1
"21/09/22","14:40",0.0,31.1,61.0,1003.6,204.7,2.3,5.9,217.8,0.22,22.7,25.4,"14:39:28",1
"21/09/22","14:50",0.0,30.8,62.6,1003.6,195.9,2.2,4.9,222.7,0.19,22.9,25.5,"14:40:02",1
"21/09/22","15:00",0.0,31.2,63.5,1003.4,205.7,2.3,5.4,227.1,0.27,23.5,25.5,"14:53:04",1
"21/09/22","15:10",0.0,30.2,64.9,1003.1,202.5,2.6,4.7,225.7,0.09,22.9,25.5,"15:01:12",1
"21/09/22","15:20",0.0,30.1,64.9,1003.1,204.0,2.6,4.8,197.0,0.12,22.8,25.5,"15:11:28",1
"21/09/22","15:30",0.0,30.1,66.0,1002.6,213.0,2.1,4.4,230.8,0.14,23.1,25.7,"15:29:12",1
"21/09/22","15:40",0.0,30.0,66.4,1003.1,225.6,2.2,4.1,237.5,0.12,23.1,25.7,"15:31:20",1
"21/09/22","15:50",0.0,29.7,67.3,1002.4,207.1,2.0,3.5,214.3,0.08,23.0,25.6,"15:40:24",1
"21/09/22","16:00",0.0,29.4,68.1,1002.6,217.2,2.1,4.0,205.8,0.05,22.9,25.7,"15:58:32",1
"21/09/22","16:10",0.0,29.2,68.9,1002.4,203.6,1.7,4.2,229.3,0.05,22.9,25.6,"16:08:48",1
"21/09/22","16:20",0.0,29.0,69.2,1002.4,215.9,1.7,4.2,204.5,0.01,22.8,25.5,"16:11:28",1
"21/09/22","16:30",0.6,28.6,72.2,1002.2,201.2,1.2,2.9,221.0,0.00,23.1,25.6,"16:27:52",1
"21/09/22","16:40",0.2,27.4,76.5,1002.4,182.1,1.0,3.3,197.1,0.00,22.9,25.4,"16:39:36",1
"21/09/22","16:50",0.0,27.0,79.9,1002.9,195.5,1.0,2.2,193.5,0.02,23.3,25.7,"16:40:08",1
"21/09/22","17:00",0.0,26.8,81.4,1002.6,249.7,0.6,2.5,223.4,0.02,23.4,25.4,"16:52:08",1
"21/09/22","17:10",0.0,26.8,82.4,1002.9,309.3,0.3,1.2,348.0,0.01,23.6,25.8,"17:09:12",1
"21/09/22","17:20",0.0,26.6,83.8,1003.4,303.5,0.7,1.3,339.5,0.00,23.7,25.4,"17:15:20",1
"21/09/22","17:30",0.2,25.7,84.8,1003.6,299.7,1.0,2.8,233.2,0.00,23.0,25.6,"17:28:56",1
"21/09/22","17:40",0.4,25.4,85.1,1003.8,315.8,0.6,2.8,217.8,0.00,22.8,25.3,"17:30:16",1
"21/09/22","17:50",0.0,25.7,85.6,1003.6,7.6,0.7,1.4,359.2,0.01,23.1,25.6,"17:42:00",1
"21/09/22","18:00",0.0,25.2,86.1,1004.1,44.0,0.3,0.9,27.7,0.00,22.7,25.4,"17:51:12",1
"21/09/22","18:10",0.0,25.2,86.6,1004.3,334.8,0.2,1.0,339.3,0.00,22.8,25.4,"18:09:46",1
"21/09/22","18:20",0.0,24.9,87.2,1004.3,280.9,0.8,1.8,234.3,0.00,22.7,25.6,"18:17:36",1
"21/09/22","18:30",0.2,24.7,87.7,1004.5,287.6,0.6,2.1,199.5,0.00,22.6,25.5,"18:21:36",1
"21/09/22","18:40",0.0,24.5,88.3,1004.3,182.3,0.5,1.0,150.8,0.00,22.5,25.4,"18:31:44",1
"21/09/22","18:50",0.0,24.4,88.9,1005.2,301.7,0.8,1.9,351.9,0.00,22.5,25.5,"18:47:04",1
"21/09/22","19:00",0.0,24.4,89.2,1005.0,283.4,0.7,1.2,242.7,0.00,22.5,25.4,"18:51:44",1
"21/09/22","19:10",0.0,24.3,89.6,1005.0,357.8,0.6,1.7,347.4,0.00,22.5,25.4,"19:07:52",1
"21/09/22","19:20",0.0,24.2,89.9,1005.5,9.1,0.7,1.6,334.9,0.00,22.5,25.5,"19:18:48",1
"21/09/22","19:30",0.0,24.0,90.2,1005.5,314.9,1.0,1.6,327.6,0.00,22.3,25.3,"19:24:08",1
"21/09/22","19:40",0.0,23.9,90.6,1005.7,320.1,1.2,1.9,332.4,0.00,22.3,25.4,"19:33:20",1
"21/09/22","19:50",0.0,23.9,90.7,1005.7,334.6,0.8,2.0,331.9,0.00,22.3,25.4,"19:41:44",1
"21/09/22","20:00",0.0,23.7,91.0,1006.0,322.2,0.7,1.6,322.3,0.00,22.2,25.3,"19:59:04",1
"21/09/22","20:10",0.0,23.6,91.2,1006.0,332.2,0.7,1.3,316.1,0.00,22.1,25.4,"20:07:12",1
"21/09/22","20:20",0.0,23.4,91.5,1006.0,327.6,1.1,1.4,339.1,0.00,22.0,25.4,"20:16:16",1
"21/09/22","20:30",0.0,23.4,91.8,1006.2,320.0,0.8,2.2,333.0,0.00,22.0,25.0,"20:28:40",1
"21/09/22","20:40",0.0,23.5,91.9,1006.4,359.9,0.6,1.2,11.0,0.00,22.1,25.3,"20:37:36",1
"21/09/22","20:50",0.0,23.4,92.1,1006.7,341.4,0.3,0.8,332.8,0.00,22.1,25.4,"20:47:04",1
"21/09/22","21:00",0.0,23.4,92.2,1006.7,21.4,0.3,1.7,339.5,0.00,22.1,25.3,"20:58:48",1
"21/09/22","21:10",0.0,23.3,92.3,1006.7,296.4,0.8,1.3,323.7,0.00,22.0,25.1,"21:03:12",1
"21/09/22","21:20",0.0,23.2,92.5,1006.9,326.1,0.7,1.1,336.7,0.00,22.0,25.2,"21:19:44",1
"21/09/22","21:30",0.0,23.1,92.7,1007.1,340.7,1.1,1.8,338.5,0.00,21.9,25.3,"21:26:08",1
"21/09/22","21:40",0.0,22.8,92.9,1007.1,322.9,1.0,1.8,328.2,0.00,21.6,25.1,"21:31:12",1
"21/09/22","21:50",0.0,22.7,93.1,1007.4,306.1,0.8,1.1,309.8,0.00,21.6,24.9,"21:48:00",1
"21/09/22","22:00",0.0,22.6,93.1,1007.4,327.2,0.7,1.3,338.2,0.00,21.5,25.2,"21:53:04",1
"21/09/22","22:10",0.0,22.5,93.3,1007.4,321.0,1.0,1.2,331.0,0.00,21.4,25.2,"22:08:40",1
"21/09/22","22:20",0.0,22.3,93.5,1007.4,315.4,1.0,1.6,329.0,0.00,21.2,25.0,"22:11:20",1
"21/09/22","22:30",0.0,22.3,93.6,1007.4,296.7,1.0,1.7,311.9,0.00,21.3,24.9,"22:27:44",1
"21/09/22","22:40",0.0,22.1,93.7,1007.6,303.5,0.7,1.1,308.7,0.00,21.1,25.2,"22:31:28",1
"21/09/22","22:50",0.0,22.1,93.9,1007.6,312.3,0.8,1.4,316.8,0.00,21.1,25.2,"22:46:16",1
"21/09/22","23:00",0.0,22.0,93.9,1007.1,301.5,0.8,1.2,345.6,0.00,21.0,25.0,"22:50:40",1
"21/09/22","23:10",0.0,22.1,94.1,1007.1,305.0,1.1,2.0,328.4,0.00,21.1,25.0,"23:06:48",1
"21/09/22","23:20",0.0,22.1,94.1,1007.4,310.8,0.8,1.6,329.7,0.00,21.1,24.9,"23:13:52",1
"21/09/22","23:30",0.0,22.0,94.2,1007.6,325.7,1.1,1.6,332.8,0.00,21.1,24.8,"23:23:36",1
"21/09/22","23:40",0.0,21.8,94.3,1007.6,286.2,1.0,1.7,309.2,0.00,20.9,24.6,"23:31:04",1
"21/09/22","23:50",0.0,21.9,94.4,1007.8,281.0,1.0,1.4,284.8,0.00,21.0,24.8,"23:48:16",1
"21/09/22","24:00",0.0,21.8,94.4,1007.8,314.7,1.0,1.4,318.7,0.00,20.9,24.9,"23:54:00",1
